User: anonymous   Login
Location: Unspecified
(0.0000°N, 0.0000°E)
Time: 03:29:55
(UTC+00:00)
Language:

Meteor 2-14 - Orbit

View from above orbital plane
View from above orbital plane
View from above satellite
View from above satellite

Ground track
Ground track

The orbit data is extracted from the following two-line orbital elements,

1 16735U 86039A   18017.53735948  .00000023  00000-0  75509-5 0  9995
2 16735  82.5341 212.9610 0014246 199.4521 178.6349 13.85277957599551
Epoch (UTC): 17 January 2018 12:53:47
Eccentricity: 0.0014246
inclination: 82.5341°
perigee height: 935 km
apogee height: 955 km
right ascension of ascending node: 212.9610°
argument of perigee: 199.4521°
revolutions per day: 13.85277957
mean anomaly at epoch: 178.6349°
orbit number at epoch: 59955

The dashed part of the orbit path shows where the satellite is in the earth's shadow,  

DLR